DW6455 Orivesi FI current weather conditions

sailwx.info

Wind from 236 at 4 knots gusting 13

Air temperature 16.7° C
Dewpoint 15.4° C

Last reported at 2016-Aug-27 04:07 UTC.
Time now 2016-Aug-27 09:55 UTC

Location: N 61°39' E 024°21'.
View on Google Maps.

See reports from other nearby stations

  
Tides and Currents Weather Stations Pressure Air Temp Water Temp Dewpoint Dewpoint Depression Visibility Wind Speed Wind Dir Waves Ship Positions
date/time (UTC)wind fromknots sea level pressurealtimeterstation pressurevisibilityair tempwater tempwave heightnotes
2016-Aug-27 04:07 236 4 gusting 13 16.7
2016-Aug-27 04:02 305 4 gusting 13 16.1
2016-Aug-27 03:57 228 3 gusting 10 16.1
2016-Aug-27 03:52 230 2 gusting 10 16.1
2016-Aug-27 03:47 212 2 gusting 10 16.1
2016-Aug-27 03:42 248 3 gusting 10 16.1
2016-Aug-27 03:37 223 3 gusting 13 16.7
2016-Aug-27 03:32 284 3 gusting 13 16.7
2016-Aug-27 03:27 208 2 gusting 13 16.7
2016-Aug-27 03:22 255 4 gusting 10 16.7
2016-Aug-27 03:17 228 4 gusting 10 16.7
2016-Aug-27 03:12 252 3 gusting 10 16.7
2016-Aug-27 03:07 252 3 gusting 11 16.7
2016-Aug-27 03:02 205 2 gusting 11 16.7
2016-Aug-27 02:57 239 2 gusting 11 16.7
2016-Aug-27 02:52 223 2 gusting 11 16.7
2016-Aug-27 02:47 251 4 gusting 10 16.7
2016-Aug-27 02:42 241 4 gusting 10 16.7
2016-Aug-27 02:37 243 3 gusting 13 16.7
2016-Aug-27 02:32 244 2 gusting 13 16.7
2016-Aug-27 02:27 190 2 gusting 13 16.7
2016-Aug-27 02:22 249 3 gusting 13 16.7
2016-Aug-27 02:17 229 4 gusting 12 16.7
2016-Aug-27 02:12 244 3 gusting 12 16.7
2016-Aug-27 02:07 217 2 gusting 13 16.7
2016-Aug-27 02:02 223 2 gusting 13 16.7
2016-Aug-27 01:57 225 2 gusting 13 16.7
2016-Aug-27 01:52 232 4 gusting 12 16.7
2016-Aug-27 01:47 213 4 gusting 12 16.7
2016-Aug-27 01:42 249 2 gusting 11 16.7
2016-Aug-27 01:37 235 2 gusting 11 16.7
2016-Aug-27 01:32 235 3 gusting 7 16.7
2016-Aug-27 01:27 200 2 gusting 7 16.7
2016-Aug-27 01:22 200 2 gusting 9 16.7
2016-Aug-27 01:17 231 3 gusting 9 16.7
2016-Aug-27 01:12 199 3 gusting 13 16.7
2016-Aug-27 01:07 177 3 gusting 13 16.7
2016-Aug-27 01:02 195 4 gusting 13 16.7
2016-Aug-27 00:57 203 3 gusting 13 16.7
2016-Aug-27 00:52 236 2 gusting 13 16.7
2016-Aug-27 00:48 188 3 gusting 13 16.7
2016-Aug-27 00:37 227 3 gusting 13 16.7
2016-Aug-27 00:32 167 2 gusting 8 16.7
2016-Aug-27 00:27 230 2 gusting 8 16.7
2016-Aug-27 00:22 244 2 gusting 8 16.7
2016-Aug-27 00:17 213 2 gusting 8 16.7
2016-Aug-27 00:12 196 3 gusting 8 16.7
2016-Aug-27 00:07 138 3 gusting 8 16.7
2016-Aug-27 00:02 163 4 gusting 13 16.7
2016-Aug-26 23:57 161 3 gusting 13 16.7
2016-Aug-26 23:52 160 3 gusting 11 16.7
2016-Aug-26 23:47 147 4 gusting 11 16.7
2016-Aug-26 23:42 150 4 gusting 12 16.7
2016-Aug-26 23:37 219 4 gusting 12 16.7
2016-Aug-26 23:32 159 4 gusting 12 16.7
2016-Aug-26 23:27 176 4 gusting 13 16.7
2016-Aug-26 23:22 138 5 gusting 13 16.7
2016-Aug-26 23:17 207 4 gusting 13 16.7
2016-Aug-26 23:12 174 5 gusting 10 16.7
2016-Aug-26 23:07 156 6 gusting 10 16.7
2016-Aug-26 23:02 177 6 gusting 10 16.7
2016-Aug-26 22:57 209 5 gusting 11 16.7
2016-Aug-26 22:52 137 5 gusting 11 16.7
2016-Aug-26 22:47 168 5 gusting 13 16.7
2016-Aug-26 22:42 154 5 gusting 13 16.7
2016-Aug-26 22:37 200 4 gusting 13 16.7
2016-Aug-26 22:32 141 4 gusting 14 16.7
2016-Aug-26 22:27 150 5 gusting 14 16.7
2016-Aug-26 22:22 161 6 gusting 14 16.7
2016-Aug-26 22:17 167 5 gusting 13 16.7
2016-Aug-26 22:12 190 5 gusting 13 16.7
2016-Aug-26 22:07 122 5 gusting 13 16.7
2016-Aug-26 22:02 146 5 gusting 12 16.7
2016-Aug-26 21:57 149 4 gusting 12 16.7
2016-Aug-26 21:52 139 4 gusting 12 16.1
2016-Aug-26 21:47 164 4 gusting 13 16.1
2016-Aug-26 21:42 196 4 gusting 13 16.1
2016-Aug-26 21:37 202 4 gusting 13 16.1
2016-Aug-26 21:32 133 5 gusting 12 16.1
2016-Aug-26 21:27 144 6 gusting 12 16.1
2016-Aug-26 21:22 140 6 gusting 12 16.1
2016-Aug-26 21:17 211 5 gusting 12 16.1
2016-Aug-26 21:12 140 5 gusting 12 16.1
2016-Aug-26 21:07 142 4 gusting 12 16.1
2016-Aug-26 21:02 142 4 gusting 12 16.1
2016-Aug-26 20:57 167 5 gusting 17 16.1
2016-Aug-26 20:52 206 6 gusting 17 16.1
2016-Aug-26 20:47 140 7 gusting 19 16.1
2016-Aug-26 20:42 143 9 gusting 19 16.1
2016-Aug-26 20:37 143 10 gusting 14 15.6
2016-Aug-26 20:32 156 11 gusting 14 15.6
2016-Aug-26 20:27 186 10 gusting 14 15.6
2016-Aug-26 20:22 152 9 gusting 14 15.6
2016-Aug-26 20:17 154 8 gusting 13 15.6
2016-Aug-26 20:12 164 6 gusting 13 15.6
2016-Aug-26 20:07 194 5 gusting 13 15.6
2016-Aug-26 20:02 212 6 gusting 13 15.6
2016-Aug-26 19:57 162 6 gusting 13 15.6
2016-Aug-26 19:52 153 6 gusting 12 15.6
2016-Aug-26 19:47 163 6 gusting 12 15.6
2016-Aug-26 19:42 145 6 gusting 12 15.6
2016-Aug-26 19:37 194 6 gusting 9 15.6
2016-Aug-26 19:32 155 6 gusting 9 15.6
2016-Aug-26 19:27 147 5 gusting 10 15.6
2016-Aug-26 19:22 177 4 gusting 10 15.6
2016-Aug-26 19:17 182 4 gusting 10 15.6
2016-Aug-26 19:12 169 4 gusting 9 15.6
2016-Aug-26 19:07 163 5 gusting 9 15.6
2016-Aug-26 19:02 149 5 gusting 9 15.6
2016-Aug-26 18:57 148 4 gusting 9 15.6
2016-Aug-26 18:52 171 3 gusting 9 15.6
2016-Aug-26 18:47 130 4 gusting 8 15.6
2016-Aug-26 18:42 167 4 gusting 8 15.6
2016-Aug-26 18:37 155 3 gusting 8 15.6
2016-Aug-26 18:32 130 3 gusting 6 15.6
2016-Aug-26 18:27 140 3 gusting 6 15.6
2016-Aug-26 18:22 163 2 gusting 6 15.6
2016-Aug-26 18:17 142 1 gusting 7 15.6
2016-Aug-26 18:12 148 1 gusting 7 15.6
2016-Aug-26 18:07 138 1 gusting 7 15.6
2016-Aug-26 18:02 143 2 gusting 7 15.6
2016-Aug-26 17:57 153 4 gusting 7 15.6
2016-Aug-26 17:52 145 4 gusting 6 15.6
2016-Aug-26 17:47 167 3 gusting 6 15.6
2016-Aug-26 17:42 138 3 gusting 6 15.6
2016-Aug-26 17:37 158 2 gusting 6 15.6
2016-Aug-26 17:32 141 2 gusting 6 15.6
2016-Aug-26 17:27 148 2 gusting 9 15.6
2016-Aug-26 17:22 123 2 gusting 9 15.6
2016-Aug-26 17:17 145 3 gusting 9 15.6
2016-Aug-26 17:12 151 4 gusting 10 16.1
2016-Aug-26 17:07 167 4 gusting 10 16.1
2016-Aug-26 17:02 157 5 gusting 10 16.1
2016-Aug-26 16:57 165 4 gusting 6 16.1
2016-Aug-26 16:52 194 4 gusting 6 16.1
2016-Aug-26 16:47 157 3 gusting 6 16.1
2016-Aug-26 16:42 177 3 gusting 6 16.1
2016-Aug-26 16:37 139 3 gusting 6 16.1
2016-Aug-26 16:32 163 3 gusting 5 16.1
2016-Aug-26 16:27 180 2 gusting 5 16.1
2016-Aug-26 16:22 138 1 gusting 5 16.1
2016-Aug-26 16:17 162 2 gusting 6 16.1
2016-Aug-26 16:12 173 2 gusting 6 16.1
2016-Aug-26 16:07 169 2 gusting 6 16.1
2016-Aug-26 16:02 159 1 gusting 5 16.1
2016-Aug-26 15:57 165 1 gusting 5 16.1
2016-Aug-26 15:52 162 2 gusting 5 16.7
2016-Aug-26 15:47 213 2 gusting 7 16.7
2016-Aug-26 15:42 148 2 gusting 7 16.7
2016-Aug-26 15:37 149 1 gusting 7 16.7
2016-Aug-26 15:32 151 0 gusting 5 16.7
2016-Aug-26 15:27 225 1 gusting 5 16.7
2016-Aug-26 15:22 186 1 gusting 5 16.7
2016-Aug-26 15:17 182 0 gusting 5 17.2
2016-Aug-26 15:12 200 0 gusting 5 16.7
2016-Aug-26 15:07 200 1 gusting 5 16.7
2016-Aug-26 15:02 192 0 gusting 5 16.7
2016-Aug-26 14:57 191 0 gusting 7 17.2
2016-Aug-26 14:52 217 0 gusting 7 17.2
2016-Aug-26 14:47 212 1 gusting 7 17.2
2016-Aug-26 14:42 187 2 gusting 7 17.2
2016-Aug-26 14:37 177 1 gusting 7 17.8
2016-Aug-26 14:32 187 1 gusting 6 17.8
2016-Aug-26 14:27 187 0 gusting 6 18.3
2016-Aug-26 14:22 188 0 gusting 6 18.3
2016-Aug-26 14:17 176 1 gusting 6 18.3
2016-Aug-26 14:12 189 1 gusting 6 18.3
2016-Aug-26 14:07 204 0 gusting 6 18.3
2016-Aug-26 14:02 210 0 gusting 6 18.9
2016-Aug-26 13:57 201 1 gusting 6 18.9
2016-Aug-26 13:52 217 1 gusting 6 18.9
2016-Aug-26 13:47 237 0 gusting 3 18.9
2016-Aug-26 13:42 217 18.9
2016-Aug-26 13:37 218 0 gusting 3 18.9
2016-Aug-26 13:32 216 0 gusting 6 18.9
2016-Aug-26 13:27 236 0 gusting 6 18.9
2016-Aug-26 13:22 236 0 gusting 6 18.9
2016-Aug-26 13:17 214 0 gusting 5 18.9
2016-Aug-26 13:12 205 0 gusting 5 18.9
2016-Aug-26 13:07 242 0 gusting 3 18.9
2016-Aug-26 13:02 240 0 gusting 3 18.9
2016-Aug-26 12:57 213 0 gusting 3 18.9
2016-Aug-26 12:52 196 0 gusting 4 18.9
2016-Aug-26 12:47 223 19.4
2016-Aug-26 12:42 226 19.4
2016-Aug-26 12:37 226 0 gusting 3 19.4
2016-Aug-26 12:32 236 1 gusting 3 19.4
2016-Aug-26 12:27 248 0 gusting 6 19.4
2016-Aug-26 12:22 209 0 gusting 6 19.4
2016-Aug-26 12:17 206 0 gusting 6 19.4
2016-Aug-26 12:12 227 0 gusting 4 19.4
2016-Aug-26 12:07 227 0 gusting 4 19.4
2016-Aug-26 12:02 230 0 gusting 4 19.4
2016-Aug-26 11:57 182 0 gusting 4 19.4
2016-Aug-26 11:52 213 0 gusting 4 19.4
2016-Aug-26 11:47 222 0 gusting 5 19.4
2016-Aug-26 11:42 235 1 gusting 5 19.4
2016-Aug-26 11:37 221 1 gusting 5 18.9
2016-Aug-26 11:32 213 1 gusting 6 18.9
2016-Aug-26 11:27 225 2 gusting 6 18.9
2016-Aug-26 11:22 223 2 gusting 6 18.9
2016-Aug-26 11:17 174 1 gusting 5 19.4
2016-Aug-26 11:12 250 1 gusting 5 19.4
2016-Aug-26 11:07 213 1 gusting 6 19.4
2016-Aug-26 11:02 190 0 gusting 6 19.4
2016-Aug-26 10:57 238 1 gusting 6 19.4
2016-Aug-26 10:52 217 3 gusting 6 19.4
2016-Aug-26 10:47 205 3 gusting 6 19.4
2016-Aug-26 10:42 213 2 gusting 6 19.4
2016-Aug-26 10:37 239 1 gusting 5 19.4
2016-Aug-26 10:32 088 1 gusting 5 19.4
2016-Aug-26 10:27 237 2 gusting 5 19.4
2016-Aug-26 10:22 194 2 gusting 5 19.4
2016-Aug-26 10:17 132 1 gusting 5 19.4
2016-Aug-26 10:12 229 1 gusting 6 19.4
2016-Aug-26 10:07 234 0 gusting 6 19.4
2016-Aug-26 10:02 229 1 gusting 6 19.4
2016-Aug-26 09:57 241 1 gusting 7 19.4
2016-Aug-26 09:52 247 2 gusting 7 19.4
2016-Aug-26 09:47 195 2 gusting 7 19.4
2016-Aug-26 09:42 232 1 gusting 7 19.4
2016-Aug-26 09:37 249 0 gusting 3 18.9
2016-Aug-26 09:32 197 1 gusting 3 18.9
2016-Aug-26 09:27 234 1 gusting 3 18.9
2016-Aug-26 09:22 227 0 gusting 1 18.9
2016-Aug-26 09:17 232 18.3
2016-Aug-26 09:12 351 18.3
2016-Aug-26 09:07 351 18.3
2016-Aug-26 09:02 080 18.3
2016-Aug-26 08:57 079 18.3
2016-Aug-26 08:52 094 18.3
2016-Aug-26 08:47 219 18.3
2016-Aug-26 08:42 219 18.3
2016-Aug-26 08:37 219 18.3
2016-Aug-26 08:32 219 17.8
2016-Aug-26 08:27 218 17.8
2016-Aug-26 08:22 219 17.8
2016-Aug-26 08:17 128 17.8
2016-Aug-26 08:12 127 17.8
2016-Aug-26 08:07 130 17.8
2016-Aug-26 08:02 130 0 gusting 3 17.8
2016-Aug-26 07:57 148 1 gusting 3 17.8
2016-Aug-26 07:52 119 0 gusting 3 18.3
2016-Aug-26 07:47 146 0 gusting 3 17.8
2016-Aug-26 07:42 178 0 gusting 3 17.8
2016-Aug-26 07:37 129 1 gusting 3 18.3
2016-Aug-26 07:32 129 0 gusting 3 17.8
2016-Aug-26 07:27 121 0 gusting 3 17.8
2016-Aug-26 07:22 128 1 gusting 2 17.8
2016-Aug-26 07:17 128 1 gusting 2 17.8
2016-Aug-26 07:12 146 0 gusting 3 17.2
2016-Aug-26 07:07 201 0 gusting 3 17.2
2016-Aug-26 07:02 155 1 gusting 3 17.2
2016-Aug-26 06:57 155 1 gusting 3 17.2
2016-Aug-26 06:52 169 1 gusting 3 16.7
2016-Aug-26 06:47 142 1 gusting 0 16.7
2016-Aug-26 06:42 142 1 gusting 0 16.7
2016-Aug-26 06:37 138 0 gusting 0 16.7
2016-Aug-26 06:32 274 16.1
2016-Aug-26 06:27 274 16.1
2016-Aug-26 06:22 274 0 gusting 3 16.1
2016-Aug-26 06:17 274 0 gusting 0 16.1
2016-Aug-26 06:12 220 16.1
2016-Aug-26 06:07 217 16.1
2016-Aug-26 06:02 217 16.1
2016-Aug-26 05:57 217 16.7
2016-Aug-26 05:52 217 16.7
2016-Aug-26 05:47 217 16.7
2016-Aug-26 05:42 217 16.7
2016-Aug-26 05:37 217 15.6
2016-Aug-26 05:32 217 15.0
2016-Aug-26 05:27 217 14.4
2016-Aug-26 05:22 217 0 gusting 1 13.9
2016-Aug-26 05:17 217 0 gusting 1 13.3
2016-Aug-26 05:12 217 13.3
2016-Aug-26 05:07 217 13.3
2016-Aug-26 05:02 217 12.8
2016-Aug-26 04:57 217 0 gusting 1 12.8
2016-Aug-26 04:52 217 0 gusting 1 12.2
2016-Aug-26 04:47 318 11.7
2016-Aug-26 04:42 318 11.7
2016-Aug-26 04:37 318 11.1
2016-Aug-26 04:32 318 11.1
2016-Aug-26 04:27 318 11.1
2016-Aug-26 04:22 318 11.1
2016-Aug-26 04:17 318 11.1
2016-Aug-26 04:12 318 11.1
2016-Aug-26 04:07 317 10.6
2016-Aug-26 04:02 318 10.6
2016-Aug-26 03:52 318 0 gusting 1 10.6
2016-Aug-26 03:47 318 0 gusting 0 10.6
2016-Aug-26 03:42 318 10.6
2016-Aug-26 03:37 318 10.6
2016-Aug-26 03:32 318 11.1
2016-Aug-26 03:27 318 11.1
2016-Aug-26 03:22 318 11.1
2016-Aug-26 03:17 318 11.1
2016-Aug-26 03:12 318 0 gusting 1 11.1
2016-Aug-26 03:07 318 11.7
2016-Aug-26 03:02 318 11.7
2016-Aug-26 02:57 318 0 gusting 1 11.7
2016-Aug-26 02:52 318 0 gusting 1 11.7
2016-Aug-26 02:47 318 11.7
2016-Aug-26 02:42 318 12.2
2016-Aug-26 02:37 318 12.2
2016-Aug-26 02:32 318 12.2
2016-Aug-26 02:27 318 12.2
2016-Aug-26 02:22 318 0 gusting 1 12.2
2016-Aug-26 02:17 318 12.8
2016-Aug-26 02:12 318 12.8
2016-Aug-26 02:07 318 12.8
2016-Aug-26 02:02 318 12.8
2016-Aug-26 01:57 318 12.8
2016-Aug-26 01:52 318 12.8
2016-Aug-26 01:47 318 12.8
2016-Aug-26 01:42 318 12.8
2016-Aug-26 01:37 318 12.8
2016-Aug-26 01:32 318 12.8
2016-Aug-26 01:27 318 12.8
2016-Aug-26 01:22 318 12.8
2016-Aug-26 01:17 318 12.8
2016-Aug-26 01:12 318 12.8
2016-Aug-26 01:07 318 12.8
2016-Aug-26 01:02 318 12.8
2016-Aug-26 00:57 318 12.8
2016-Aug-26 00:52 318 12.8
2016-Aug-26 00:47 318 12.8
2016-Aug-26 00:42 318 12.8
2016-Aug-26 00:37 275 12.8
2016-Aug-26 00:32 275 12.8
2016-Aug-26 00:27 275 12.8
2016-Aug-26 00:22 275 12.8
2016-Aug-26 00:17 274 12.8
2016-Aug-26 00:12 274 0 gusting 3 12.8
2016-Aug-26 00:07 288 0 gusting 3 12.8
2016-Aug-26 00:02 317 12.8
2016-Aug-25 23:57 316 12.8
2016-Aug-25 23:52 259 12.8
2016-Aug-25 23:47 259 12.8
2016-Aug-25 23:42 259 12.8
2016-Aug-25 23:37 259 12.8
2016-Aug-25 23:32 259 12.8
2016-Aug-25 23:27 259 12.8
2016-Aug-25 23:22 259 12.8
2016-Aug-25 23:17 259 12.8
2016-Aug-25 23:12 259 13.3
2016-Aug-25 23:07 259 13.3
2016-Aug-25 23:02 259 13.3
2016-Aug-25 22:57 259 12.8
2016-Aug-25 22:52 259 12.8
2016-Aug-25 22:47 259 12.8
2016-Aug-25 22:42 259 0 gusting 2 12.8
2016-Aug-25 22:37 259 0 gusting 2 12.8
2016-Aug-25 22:32 259 12.8
2016-Aug-25 22:27 259 12.8
2016-Aug-25 22:22 259 12.8
2016-Aug-25 22:17 259 12.8
2016-Aug-25 22:12 259 12.8
2016-Aug-25 22:07 259 12.8
2016-Aug-25 22:02 259 12.8
2016-Aug-25 21:57 259 12.8
2016-Aug-25 21:52 259 12.8
2016-Aug-25 21:47 259 12.8
2016-Aug-25 21:42 259 12.8
2016-Aug-25 21:37 251 12.8
2016-Aug-25 21:32 248 12.8
2016-Aug-25 21:27 248 12.8
2016-Aug-25 21:22 248 12.8
2016-Aug-25 21:17 248 12.8
2016-Aug-25 21:12 248 12.8
2016-Aug-25 21:07 247 12.8
2016-Aug-25 21:02 247 12.8
2016-Aug-25 20:57 247 12.8
2016-Aug-25 20:52 247 12.8
2016-Aug-25 20:47 247 12.8
2016-Aug-25 20:42 247 12.8
2016-Aug-25 20:37 247 12.8
2016-Aug-25 20:32 247 12.8
2016-Aug-25 20:27 247 12.8
2016-Aug-25 20:22 246 12.8
2016-Aug-25 20:17 246 12.8
2016-Aug-25 20:12 247 12.8
2016-Aug-25 20:07 246 13.3
2016-Aug-25 20:02 246 13.3
2016-Aug-25 19:57 246 13.3
2016-Aug-25 19:52 298 13.3
2016-Aug-25 19:47 298 13.3
2016-Aug-25 19:42 298 13.3
2016-Aug-25 19:37 298 13.9
2016-Aug-25 19:32 298 13.9
2016-Aug-25 19:27 281 13.9
2016-Aug-25 19:22 281 13.9
2016-Aug-25 19:17 281 13.9
2016-Aug-25 19:12 282 0 gusting 5 13.9
2016-Aug-25 19:07 281 0 gusting 3 14.4
2016-Aug-25 19:02 274 14.4
2016-Aug-25 18:57 285 14.4
2016-Aug-25 18:52 218 14.4
2016-Aug-25 18:47 205 14.4
2016-Aug-25 18:42 216 14.4
2016-Aug-25 18:37 217 14.4
2016-Aug-25 18:32 217 14.4
2016-Aug-25 18:27 296 14.4
2016-Aug-25 18:22 267 15.0
2016-Aug-25 18:17 267 15.0
2016-Aug-25 18:12 267 15.0
2016-Aug-25 18:07 267 15.0
2016-Aug-25 18:02 267 15.0
2016-Aug-25 17:57 267 15.6
2016-Aug-25 17:52 267 15.6
2016-Aug-25 17:47 267 15.6
2016-Aug-25 17:42 267 15.6
2016-Aug-25 17:37 267 16.1
2016-Aug-25 17:32 267 16.1
2016-Aug-25 17:27 267 16.1
2016-Aug-25 17:22 267 16.7
2016-Aug-25 17:17 265 16.7
2016-Aug-25 17:12 265 16.7
2016-Aug-25 17:07 262 17.2
2016-Aug-25 17:02 285 17.2
2016-Aug-25 16:57 285 17.2
2016-Aug-25 16:52 285 17.8
2016-Aug-25 16:47 285 0 gusting 6 17.8
2016-Aug-25 16:42 279 17.8
2016-Aug-25 16:37 253 0 gusting 6 17.8
2016-Aug-25 16:32 252 0 gusting 6 17.8
2016-Aug-25 16:27 259 17.8
2016-Aug-25 16:22 287 0 gusting 6 17.8
2016-Aug-25 16:17 287 1 gusting 6 17.8
2016-Aug-25 16:12 298 1 gusting 6 18.3
2016-Aug-25 16:07 256 0 gusting 6 18.3
2016-Aug-25 16:02 281 0 gusting 6 18.3
2016-Aug-25 15:57 282 1 gusting 7 18.3
2016-Aug-25 15:52 282 1 gusting 7 18.3
2016-Aug-25 15:47 315 1 gusting 7 18.3
2016-Aug-25 15:42 275 1 gusting 7 18.3
2016-Aug-25 15:37 313 0 gusting 8 18.3
2016-Aug-25 15:32 291 0 gusting 8 18.3
2016-Aug-25 15:27 306 0 gusting 8 18.3
2016-Aug-25 15:22 291 0 gusting 7 18.9
2016-Aug-25 15:17 313 2 gusting 7 18.9
2016-Aug-25 15:12 315 2 gusting 7 18.9
2016-Aug-25 15:07 288 1 gusting 7 18.9
2016-Aug-25 15:02 305 0 gusting 7 18.9
2016-Aug-25 14:57 315 0 gusting 7 18.9
2016-Aug-25 14:52 306 0 gusting 5 18.9
2016-Aug-25 14:47 248 0 gusting 5 19.4
2016-Aug-25 14:42 220 0 gusting 5 19.4
2016-Aug-25 14:37 267 19.4
2016-Aug-25 14:32 283 0 gusting 7 19.4
2016-Aug-25 14:27 283 1 gusting 7 19.4
2016-Aug-25 14:22 286 1 gusting 7 19.4
2016-Aug-25 14:17 280 1 gusting 7 19.4
2016-Aug-25 14:12 301 0 gusting 10 19.4
2016-Aug-25 14:07 291 0 gusting 10 19.4
2016-Aug-25 14:02 314 0 gusting 10 19.4
2016-Aug-25 13:57 218 1 gusting 10 19.4
2016-Aug-25 13:52 250 1 gusting 10 19.4
2016-Aug-25 13:47 277 1 gusting 5 19.4
2016-Aug-25 13:42 237 1 gusting 5 19.4
2016-Aug-25 13:37 266 0 gusting 5 20.0
2016-Aug-25 13:32 270 0 gusting 7 20.0
2016-Aug-25 13:27 277 0 gusting 7 19.4
2016-Aug-25 13:22 288 19.4
2016-Aug-25 13:17 321 0 gusting 3 19.4
2016-Aug-25 13:12 321 0 gusting 3 19.4
2016-Aug-25 13:07 195 0 gusting 5 19.4
2016-Aug-25 13:02 293 0 gusting 5 19.4
2016-Aug-25 12:57 275 0 gusting 5 19.4
2016-Aug-25 12:52 269 0 gusting 6 19.4
2016-Aug-25 12:47 306 1 gusting 6 18.9
2016-Aug-25 12:42 262 0 gusting 6 18.9
2016-Aug-25 12:37 254 0 gusting 2 18.9
2016-Aug-25 12:32 275 0 gusting 2 18.3
2016-Aug-25 12:27 219 0 gusting 2 18.3
2016-Aug-25 12:22 273 18.3
2016-Aug-25 12:17 273 17.8
2016-Aug-25 12:12 273 17.8
2016-Aug-25 12:07 272 17.8
2016-Aug-25 12:02 302 0 gusting 6 17.8
2016-Aug-25 11:57 311 0 gusting 3 17.8
2016-Aug-25 11:52 250 0 gusting 3 17.8
2016-Aug-25 11:47 249 0 gusting 6 17.8
2016-Aug-25 11:42 227 17.8
2016-Aug-25 11:37 227 0 gusting 6 17.8
2016-Aug-25 11:32 244 1 gusting 6 17.8
2016-Aug-25 11:27 215 1 gusting 6 17.2
2016-Aug-25 11:22 232 0 gusting 6 17.2
2016-Aug-25 11:17 211 0 gusting 5 17.2
2016-Aug-25 11:12 229 1 gusting 5 17.2
2016-Aug-25 11:07 227 1 gusting 4 16.7
2016-Aug-25 11:02 219 1 gusting 4 16.7
2016-Aug-25 10:57 202 0 gusting 4 16.7
2016-Aug-25 10:52 198 0 gusting 5 16.7
2016-Aug-25 10:47 198 1 gusting 5 16.1
2016-Aug-25 10:42 197 1 gusting 5 16.1
2016-Aug-25 10:37 217 1 gusting 4 15.6
2016-Aug-25 10:32 209 1 gusting 4 15.6
2016-Aug-25 10:27 208 0 gusting 3 15.6
2016-Aug-25 10:22 225 0 gusting 3 15.6
2016-Aug-25 10:17 234 0 gusting 3 15.0
2016-Aug-25 10:12 234 0 gusting 3 15.0
2016-Aug-25 10:07 234 0 gusting 6 15.0
2016-Aug-25 10:02 249 0 gusting 6 15.0
2016-Aug-25 09:57 236 1 gusting 6 15.0
2016-Aug-25 09:52 222 1 gusting 6 15.0
2016-Aug-25 09:47 213 1 gusting 6 15.0
2016-Aug-25 09:42 232 1 gusting 6 15.0
2016-Aug-25 09:37 215 0 gusting 4 15.0
2016-Aug-25 09:32 242 0 gusting 4 15.0
2016-Aug-25 09:27 202 0 gusting 4 14.4
2016-Aug-25 09:22 242 1 gusting 5 14.4
2016-Aug-25 09:17 219 1 gusting 5 14.4
2016-Aug-25 09:12 212 1 gusting 5 14.4
2016-Aug-25 09:07 209 0 gusting 6 14.4
2016-Aug-25 09:02 209 1 gusting 6 14.4